Location: Enikep?du
(16.5133°N, 80.7066°E)
Time: 07:19:21
(UTC+00:00)

Cosmos 1452 Rocket - Pass Details

Date: 15 May 2026
Orbit: 763 x 770 km, 74.1° (Epoch: 5 June)

Event Time Altitude Azimuth Distance (km) Brightness Sun altitude
Rises 13:11:34 0° 182° (S) 3,214 6.5 -3.3°
Reaches altitude 10° 13:14:00 10° 177° (S) 2,289 5.7 -3.8°
Maximum altitude 13:19:01 51° 102° (ESE) 953 3.7 -5.0°
Drops below altitude 10° 13:24:02 10° 27° (NNE) 2,291 5.9 -6.1°
Sets 13:26:27 0° 22° (NNE) 3,218 6.7 -6.6°
